Location: Chandler
(33.3060°N, 111.8410°W)
Time: 13:02:46
(UTC-07:00)

Amateur Radio Satellites - All Passes

Search period start: 30 March 2015 12:32
Search period end: 31 March 2015 12:32
Location: Chandler, 33.3060°N, 111.8410°W

Satellite Date Start Highest point End Downlink Frequencies (MHz)
Time Altitude Azimuth
ITAMSAT 1 30 Mar 12:54:12 12:57:11 16° 67° (ENE) 13:00:23 435.822/435.867
TISAT 1 30 Mar 12:57:34 13:01:45 73° 284° (WNW) 13:05:56 437.305
PCSat 30 Mar 13:06:11 13:10:05 21° 107° (ESE) 13:14:11 145.827
CUBEBUG 1 30 Mar 13:10:07 13:11:33 11° 292° (WNW) 13:12:43 437.445
SPROUT 30 Mar 13:12:19 13:16:20 39° 286° (WNW) 13:20:18 437.525
YUBILEINY 30 Mar 13:15:11 13:23:49 66° 93° (E) 13:32:34 435.215
Oscar 19 30 Mar 13:23:02 13:28:08 77° 257° (WSW) 13:33:17 437.125/150
ITUPSAT 1 30 Mar 13:28:38 13:32:49 30° 96° (E) 13:37:02 437.325
AO-7 30 Mar 13:46:57 13:50:20 14° 55° (NE) 13:54:17 29.400- 29.500
Gurwin Techsat 1B 30 Mar 13:47:45 13:52:44 44° 73° (ENE) 13:57:47 435.225
JUGNU 30 Mar 13:52:03 13:56:20 20° 174° (S) 14:00:38 437.505
O/OREOS (USA 219) 30 Mar 14:03:23 14:07:56 74° 252° (WSW) 14:12:23 437.305
KKS-1 30 Mar 14:08:57 14:11:01 13° 92° (E) 14:13:20 437.445
SWISSCUBE 30 Mar 14:15:31 14:20:18 70° 284° (WNW) 14:25:02 437.505
BEESAT 30 Mar 14:18:16 14:23:03 72° 284° (WNW) 14:27:47 436.000
ITAMSAT 1 30 Mar 14:31:12 14:36:18 53° 260° (W) 14:41:24 435.822/435.867
STARS 30 Mar 14:37:21 14:40:17 18° 94° (E) 14:43:23 437.465
JAS-2 30 Mar 14:46:39 14:51:52 24° 64° (ENE) 14:57:42 435.910
PCSat 30 Mar 14:48:08 14:53:15 42° 301° (WNW) 14:58:22 145.827
SRMSAT 30 Mar 14:53:52 14:57:48 18° 171° (S) 15:01:46 437.500
ITUPSAT 1 30 Mar 15:06:49 15:10:34 23° 290° (WNW) 15:14:11 437.325
HORYU 2 30 Mar 15:14:15 15:18:39 76° 76° (ENE) 15:23:06 437.375
YUBILEINY 30 Mar 15:14:40 15:21:26 23° 291° (WNW) 15:27:50 435.215
AIST 1 30 Mar 15:27:25 15:31:39 57° 266° (W) 15:35:49
Gurwin Techsat 1B 30 Mar 15:29:13 15:32:58 19° 267° (W) 15:36:30 435.225
AO-7 30 Mar 15:33:45 15:42:00 75° 72° (ENE) 15:50:18 29.400- 29.500
JUGNU 30 Mar 15:40:19 15:44:45 21° 184° (S) 15:49:11 437.505
KKS-1 30 Mar 15:43:42 15:47:55 43° 286° (WNW) 15:52:07 437.445
STARS 30 Mar 16:12:55 16:16:51 32° 288° (WNW) 16:20:43 437.465
JAS-2 30 Mar 16:29:42 16:36:20 58° 262° (W) 16:43:43 435.910
M-CUBED/EXP-1 PRIME 30 Mar 16:40:05 16:40:45 10° 93° (E) 16:41:47 437.505
SRMSAT 30 Mar 16:41:53 16:46:22 22° 181° (S) 16:50:50 437.500
CUTE-I 30 Mar 17:03:05 17:07:02 22° 69° (ENE) 17:11:08 437.470
Cubesat XI-IV 30 Mar 17:03:37 17:07:37 23° 69° (ENE) 17:11:47 437.490
MOZHAYETS 4 30 Mar 17:27:53 17:32:29 60° 284° (WNW) 17:37:02
AO-7 30 Mar 17:29:55 17:35:37 19° 268° (W) 17:40:49 29.400- 29.500
JUGNU 30 Mar 17:29:56 17:33:10 15° 193° (SSW) 17:36:18 437.505
GONETS M04 30 Mar 17:37:20 17:41:55 17° 82° (E) 17:47:09
CUBESAT XI-V 30 Mar 17:44:13 17:45:38 12° 90° (E) 17:47:21 437.345
AUBIESAT-1 30 Mar 17:45:44 17:50:28 55° 104° (ESE) 17:55:00 437.475
BEESAT 3 30 Mar 17:54:58 17:57:05 14° 49° (NE) 17:59:20 437.485
PRISM 30 Mar 17:58:39 17:59:52 11° 91° (E) 18:01:21 437.425
M-CUBED/EXP-1 PRIME 30 Mar 18:11:20 18:16:09 68° 289° (WNW) 18:20:48 437.505
RS-15 30 Mar 18:11:34 18:22:12 63° 113° (ESE) 18:32:59 29.354- 29.394
SO-50 30 Mar 18:17:22 18:21:56 80° 299° (WNW) 18:26:42 436.795
SRMSAT 30 Mar 18:31:06 18:34:56 17° 190° (S) 18:38:41 437.500
AIST 2 30 Mar 18:39:47 18:41:36 13° 47° (NE) 18:43:35 435.215
CUTE-I 30 Mar 18:41:52 18:46:53 39° 262° (W) 18:51:52 437.470
Cubesat XI-IV 30 Mar 18:42:31 18:47:31 38° 262° (W) 18:52:29 437.490
BEESAT 2 30 Mar 18:56:02 19:00:04 53° 59° (ENE) 19:04:02 435.950
STRAND 1 30 Mar 19:02:18 19:07:12 46° 99° (E) 19:12:06 437.568
CANX-2 30 Mar 19:17:29 19:17:40 10° 68° (ENE) 19:18:07 2200.000
CUBESAT XI-V 30 Mar 19:18:58 19:23:29 52° 285° (WNW) 19:27:56 437.345
AUBIESAT-1 30 Mar 19:22:06 19:24:48 15° 298° (WNW) 19:27:16 437.475
BRITE-PL 30 Mar 19:24:15 19:28:05 25° 73° (ENE) 19:31:46 437.365/2234.400
GONETS M04 30 Mar 19:29:12 19:37:54 80° 277° (W) 19:46:41
CUTE 1.7 + AOD 2 30 Mar 19:29:23 19:31:19 13° 69° (ENE) 19:33:28 437.475
BEESAT 3 30 Mar 19:31:30 19:35:26 45° 246° (WSW) 19:39:17 437.485
PRISM 30 Mar 19:31:41 19:35:39 43° 286° (WNW) 19:39:33 437.425
HO-68 30 Mar 19:42:15 19:48:43 40° 68° (ENE) 19:55:19 435.675
DOVE 4 30 Mar 19:46:22 19:49:06 17° 71° (ENE) 19:51:56 437.250
AAUSAT CUBESAT 2 30 Mar 19:48:32 19:50:12 13° 69° (ENE) 19:52:07 437.432
SEEDS 30 Mar 19:55:03 19:58:16 22° 72° (ENE) 20:01:36 437.485
GOMX 1 30 Mar 20:03:03 20:07:19 43° 75° (ENE) 20:11:24 467.674
COMPASS 1 30 Mar 20:14:45 20:18:24 31° 73° (ENE) 20:22:08 437.405
AIST 2 30 Mar 20:16:28 20:20:36 56° 245° (WSW) 20:24:39 435.215
DANDE 30 Mar 20:22:55 20:25:54 33° 98° (E) 20:28:28 436.750
Oscar 11 30 Mar 20:24:04 20:26:35 16° 70° (ENE) 20:29:17 145.826/435.025
RS-15 30 Mar 20:25:34 20:35:17 34° 315° (NW) 20:44:58 29.354- 29.394
FUNcube-1 30 Mar 20:39:46 20:40:13 10° 68° (ENE) 20:40:57 145.935
ISS 30 Mar 20:42:44 20:45:18 22° 130° (SE) 20:47:56 145.825
STRAND 1 30 Mar 20:42:44 20:46:05 17° 292° (WNW) 20:49:12 437.568
UWE-3 30 Mar 20:45:51 20:48:24 17° 71° (ENE) 20:51:07 435.000/436.395/437.385
CANX-2 30 Mar 20:49:02 20:53:10 55° 260° (W) 20:57:22 2200.000
CINEMA 3 30 Mar 20:50:43 20:54:46 47° 75° (ENE) 20:58:46 145.822/145.860
ZACube-1 30 Mar 20:51:16 20:53:36 15° 70° (ENE) 20:56:07 437.345
DELFI C3 30 Mar 20:52:24 20:55:40 24° 72° (ENE) 20:59:02 145.870
CUBEBUG 2 30 Mar 20:53:12 20:56:35 25° 72° (ENE) 21:00:02 437.445
BRITE-PL 30 Mar 21:02:42 21:06:35 24° 264° (W) 21:10:10 437.365/2234.400
CUTE 1.7 + AOD 2 30 Mar 21:02:55 21:06:55 41° 262° (W) 21:10:56 437.475
CUSAT 1 30 Mar 21:07:33 21:09:53 21° 281° (W) 21:12:00 437.405
AAUSAT CUBESAT 2 30 Mar 21:21:33 21:25:30 42° 261° (W) 21:29:30 437.432
DOVE 4 30 Mar 21:22:49 21:26:44 31° 263° (W) 21:30:29 437.250
HUMSAT D 30 Mar 21:29:18 21:32:18 21° 71° (ENE) 21:35:25 437.325/437.525
UKube-1 30 Mar 21:29:37 21:33:30 34° 73° (ENE) 21:37:26 .
HO-68 30 Mar 21:30:07 21:36:29 33° 263° (W) 21:42:46 435.675
SEEDS 30 Mar 21:30:35 21:34:00 23° 265° (W) 21:37:22 437.485
GONETS M04 30 Mar 21:32:43 21:36:27 12° 298° (WNW) 21:39:25
DX 1 30 Mar 21:41:32 21:45:45 51° 75° (ENE) 21:50:00 434.975-435.025
GOMX 1 30 Mar 21:43:33 21:45:41 13° 268° (W) 21:47:30 467.674
ANTELSAT 30 Mar 21:49:14 21:50:07 11° 90° (E) 21:51:20 437.575/2403.000
COMPASS 1 30 Mar 21:51:26 21:54:12 17° 267° (W) 21:56:49 437.405
50 SAT 30 Mar 21:57:16 22:00:34 28° 73° (ENE) 22:03:58 437.505
Oscar 11 30 Mar 21:58:32 22:02:31 35° 263° (W) 22:06:29 145.826/435.025
FUNcube-1 30 Mar 22:12:10 22:16:11 50° 261° (W) 22:20:13 145.935
ISS 30 Mar 22:18:49 22:21:37 26° 323° (NW) 22:24:25 145.825
UWE-3 30 Mar 22:21:05 22:24:46 30° 263° (W) 22:28:25 435.000/436.395/437.385
NANOSAT C BR1 30 Mar 22:22:01 22:23:01 11° 91° (E) 22:24:18 145.865
CUBEBUG 1 30 Mar 22:23:54 22:27:31 26° 72° (ENE) 22:31:14 437.445
ZACube-1 30 Mar 22:25:59 22:29:45 33° 263° (W) 22:33:30 437.345
POLYITAN 1 30 Mar 22:26:48 22:28:48 13° 92° (E) 22:31:02 437.675
VELOX 1 30 Mar 22:27:41 22:32:06 71° 76° (ENE) 22:36:32 145.980
DELFI C3 30 Mar 22:27:47 22:30:49 20° 266° (W) 22:33:47 145.870
CUBEBUG 2 30 Mar 22:30:14 22:33:19 19° 266° (W) 22:36:16 437.445
AISAT 30 Mar 22:33:03 22:37:30 86° 77° (ENE) 22:41:57 437.250
UNISAT 6 30 Mar 22:42:10 22:46:36 47° 99° (E) 22:51:08 437.425
RS-15 30 Mar 22:49:57 22:52:45 11° 347° (NNW) 22:55:15 29.354- 29.394
TIGRISAT 30 Mar 22:51:34 22:56:06 59° 100° (E) 23:00:44 435.000
QB50P1 30 Mar 23:01:31 23:05:24 36° 98° (E) 23:09:19 145.935-145.965
DUCHIFAT 1 30 Mar 23:02:25 23:06:18 35° 98° (E) 23:10:12 145.980
HUMSAT D 30 Mar 23:04:38 23:07:59 24° 265° (W) 23:11:16 437.325/437.525
UKube-1 30 Mar 23:06:58 23:09:47 16° 267° (W) 23:12:25 .
ESTCUBE 1 30 Mar 23:07:52 23:12:25 81° 258° (WSW) 23:16:59 437.505/2401.250
QB50P2 30 Mar 23:16:42 23:20:53 58° 101° (E) 23:25:04 145.880/145.840
DX 1 30 Mar 23:21:09 23:22:22 11° 269° (W) 23:23:17 434.975-435.025
ANTELSAT 30 Mar 23:22:44 23:27:17 59° 285° (WNW) 23:31:54 437.575/2403.000
YUBILEINY 30 Mar 23:31:39 23:38:30 26° 70° (ENE) 23:45:37 435.215
50 SAT 30 Mar 23:33:06 23:35:34 16° 267° (W) 23:37:53 437.505
BUGSAT 1 30 Mar 23:35:39 23:39:40 66° 101° (E) 23:43:40 437.445
PCSat 30 Mar 23:39:49 23:45:12 64° 62° (ENE) 23:50:34 145.827
POPSAT HIP 1 30 Mar 23:45:06 23:49:17 63° 284° (WNW) 23:53:29 437.405
TISAT 1 30 Mar 23:45:42 23:49:44 46° 74° (ENE) 23:53:47 437.305
NANOSAT C BR1 30 Mar 23:55:07 23:59:11 46° 285° (WNW) 00:03:14 145.865
CUBEBUG 1 31 Mar 00:00:25 00:03:53 22° 265° (W) 00:07:14 437.445
POLYITAN 1 31 Mar 00:00:58 00:04:56 39° 286° (WNW) 00:08:53 437.675
SPROUT 31 Mar 00:01:54 00:06:12 90° 278° (W) 00:10:30 437.525
UNISAT 6 31 Mar 00:20:28 00:23:04 15° 291° (WNW) 00:25:28 437.425
TIGRISAT 31 Mar 00:30:43 00:32:27 12° 292° (WNW) 00:33:54 435.000
ITUPSAT 1 31 Mar 00:31:54 00:35:36 23° 70° (ENE) 00:39:26 437.325
QB50P1 31 Mar 00:38:29 00:41:02 15° 290° (WNW) 00:43:24 145.935-145.965
DUCHIFAT 1 31 Mar 00:39:21 00:41:52 15° 290° (WNW) 00:44:13 145.980
RS-15 31 Mar 01:06:45 01:12:22 15° 24° (NNE) 01:18:38 29.354- 29.394
SWISSCUBE 31 Mar 01:17:44 01:22:32 83° 79° (ENE) 01:27:23 437.505
BEESAT 31 Mar 01:20:24 01:25:12 81° 76° (ENE) 01:30:01 436.000
TISAT 1 31 Mar 01:24:32 01:25:50 11° 269° (W) 01:26:51 437.305
PCSat 31 Mar 01:25:32 01:28:09 13° 255° (WSW) 01:30:26 145.827
YUBILEINY 31 Mar 01:27:19 01:35:55 58° 268° (W) 01:44:23 435.215
Oscar 19 31 Mar 01:38:50 01:43:53 53° 100° (E) 01:48:58 437.125/150
Gurwin Techsat 1B 31 Mar 02:08:42 02:12:55 25° 95° (E) 02:17:15 435.225
ITUPSAT 1 31 Mar 02:09:07 02:13:23 30° 264° (W) 02:17:34 437.325
O/OREOS (USA 219) 31 Mar 02:33:14 02:36:36 21° 102° (ESE) 02:40:08 437.305
KKS-1 31 Mar 02:37:22 02:41:48 81° 258° (WSW) 02:46:15 437.445
VERMONT LUNAR 31 Mar 02:38:02 02:39:48 14° 142° (SE) 02:41:39 437.305
ITAMSAT 1 31 Mar 02:48:10 02:53:22 79° 101° (E) 02:58:32 435.822/435.867
SO-50 31 Mar 02:53:05 02:57:28 31° 54° (NE) 03:01:52 436.795
STARS 31 Mar 03:05:14 03:09:34 61° 260° (W) 03:13:55 437.465
HORYU 2 31 Mar 03:10:36 03:13:54 20° 94° (E) 03:17:19 437.375
RS-15 31 Mar 03:17:32 03:28:37 51° 53° (NE) 03:40:16 29.354- 29.394
Oscar 19 31 Mar 03:19:45 03:22:52 16° 293° (WNW) 03:25:45 437.125/150
PHONESAT 2.4 31 Mar 03:33:09 03:35:23 16° 143° (SE) 03:37:42 2401.200-2431.200
AO-7 31 Mar 03:40:44 03:47:49 32° 97° (E) 03:55:06 29.400- 29.500
JAS-2 31 Mar 03:44:58 03:51:19 30° 92° (E) 03:57:19 435.910
Gurwin Techsat 1B 31 Mar 03:48:12 03:52:57 33° 289° (WNW) 03:57:37 435.225
AIST 1 31 Mar 03:52:07 03:56:32 81° 277° (W) 04:00:57
O/OREOS (USA 219) 31 Mar 04:11:52 04:15:53 29° 296° (WNW) 04:19:52 437.305
VERMONT LUNAR 31 Mar 04:13:51 04:17:11 87° 328° (NNW) 04:20:33 437.305
MOZHAYETS 4 31 Mar 04:25:20 04:29:57 77° 77° (ENE) 04:34:36
AUBIESAT-1 31 Mar 04:30:17 04:33:53 33° 67° (ENE) 04:37:49 437.475
ITAMSAT 1 31 Mar 04:31:13 04:32:18 10° 295° (WNW) 04:33:01 435.822/435.867
SO-50 31 Mar 04:33:48 04:37:56 26° 249° (WSW) 04:41:55 436.795
HORYU 2 31 Mar 04:46:39 04:50:35 29° 288° (WNW) 04:54:27 437.375
ISS 31 Mar 04:49:04 04:52:10 44° 40° (NE) 04:55:16 145.825
M-CUBED/EXP-1 PRIME 31 Mar 04:55:59 04:59:55 82° 73° (ENE) 05:04:16 437.505
PHONESAT 2.4 31 Mar 05:09:55 05:13:27 81° 335° (NNW) 05:16:59 2401.200-2431.200
CUTE-I 31 Mar 05:26:18 05:27:30 11° 89° (E) 05:29:07 437.470
Cubesat XI-IV 31 Mar 05:26:49 05:28:18 11° 90° (E) 05:30:12 437.490
JAS-2 31 Mar 05:29:20 05:36:33 45° 290° (WNW) 05:43:04 435.910
RS-15 31 Mar 05:30:13 05:41:01 43° 251° (WSW) 05:51:56 29.354- 29.394
AO-7 31 Mar 05:32:57 05:40:51 49° 292° (WNW) 05:48:38 29.400- 29.500
GONETS M04 31 Mar 05:44:55 05:53:07 42° 76° (ENE) 06:01:26
VERMONT LUNAR 31 Mar 05:52:14 05:55:09 26° 350° (N) 05:58:03 437.305
AUBIESAT-1 31 Mar 06:06:23 06:08:55 16° 265° (W) 06:11:24 437.475
STRAND 1 31 Mar 06:14:04 06:18:54 44° 73° (ENE) 06:23:48 437.568
PRISM 31 Mar 06:17:21 06:21:33 75° 76° (ENE) 06:25:47 437.425
CUBESAT XI-V 31 Mar 06:17:44 06:22:27 89° 244° (WSW) 06:27:12 437.345
ISS 31 Mar 06:26:59 06:28:18 12° 232° (SW) 06:29:30 145.825
PHONESAT 2.4 31 Mar 06:49:01 06:52:06 27° 351° (N) 06:55:11 2401.200-2431.200
CUTE-I 31 Mar 07:02:53 07:08:11 70° 285° (WNW) 07:13:27 437.470
Cubesat XI-IV 31 Mar 07:03:42 07:08:59 68° 286° (WNW) 07:14:15 437.490
DANDE 31 Mar 07:04:14 07:08:08 28° 80° (E) 07:13:11 436.750
VERMONT LUNAR 31 Mar 07:30:36 07:33:25 24° 7° (N) 07:36:15 437.305
GONETS M04 31 Mar 07:42:00 07:49:51 36° 272° (W) 07:57:30
CUSAT 1 31 Mar 07:44:31 07:49:21 83° 264° (W) 07:55:50 437.405
STRAND 1 31 Mar 07:54:52 07:58:21 17° 267° (W) 08:01:36 437.568
GOMX 1 31 Mar 08:09:19 08:12:08 17° 94° (E) 08:15:13 467.674
PHONESAT 2.4 31 Mar 08:27:58 08:31:02 27° 8° (N) 08:34:06 2401.200-2431.200
CANX-2 31 Mar 08:38:45 08:42:39 33° 97° (E) 08:46:34 2200.000
BEESAT 2 31 Mar 08:46:41 08:50:09 27° 112° (ESE) 08:53:43 435.950
DANDE 31 Mar 08:47:25 08:51:22 26° 263° (W) 08:56:10 436.750
CINEMA 3 31 Mar 08:50:12 08:53:03 17° 93° (E) 08:56:11 145.822/145.860
CUTE 1.7 + AOD 2 31 Mar 08:52:12 08:56:19 44° 99° (E) 09:00:26 437.475
HO-68 31 Mar 09:01:17 09:08:24 61° 102° (ESE) 09:15:29 435.675
VERMONT LUNAR 31 Mar 09:08:08 09:11:28 66° 23° (NNE) 09:14:48 437.305
AAUSAT CUBESAT 2 31 Mar 09:08:48 09:12:45 39° 98° (E) 09:16:43 437.432
BRITE-PL 31 Mar 09:10:08 09:14:18 55° 284° (WNW) 09:18:44 437.365/2234.400
SEEDS 31 Mar 09:18:11 09:22:29 78° 101° (E) 09:26:45 437.485
BEESAT 3 31 Mar 09:20:33 09:24:38 89° 122° (ESE) 09:28:46 437.485
DOVE 4 31 Mar 09:24:42 09:29:09 88° 102° (ESE) 09:33:51 437.250
DX 1 31 Mar 09:36:12 09:37:45 12° 91° (E) 09:39:35 434.975-435.025
COMPASS 1 31 Mar 09:37:27 09:41:42 76° 283° (WNW) 09:45:56 437.405
UNISAT 6 31 Mar 09:38:04 09:41:26 24° 71° (ENE) 09:44:55 437.425
GOMX 1 31 Mar 09:46:26 09:50:22 33° 286° (WNW) 09:54:29 467.674
TIGRISAT 31 Mar 09:47:00 09:50:37 29° 72° (ENE) 09:54:23 435.000
Oscar 11 31 Mar 09:49:39 09:53:56 54° 100° (E) 09:58:13 145.826/435.025
QB50P1 31 Mar 09:51:31 09:54:07 17° 70° (ENE) 09:56:52 145.935-145.965
DUCHIFAT 1 31 Mar 09:52:09 09:54:42 16° 70° (ENE) 09:57:25 145.980
FUNcube-1 31 Mar 10:04:24 10:08:34 39° 98° (E) 10:12:49 145.935
PHONESAT 2.4 31 Mar 10:06:09 10:09:42 75° 24° (NNE) 10:13:14 2401.200-2431.200
QB50P2 31 Mar 10:06:12 10:09:38 25° 72° (ENE) 10:13:09 145.880/145.840
AIST 2 31 Mar 10:10:10 10:14:24 86° 122° (ESE) 10:18:43 435.215
DELFI C3 31 Mar 10:10:25 10:14:32 76° 102° (ESE) 10:18:36 145.870
UWE-3 31 Mar 10:14:06 10:18:33 68° 101° (E) 10:23:08 435.000/436.395/437.385
CANX-2 31 Mar 10:15:30 10:18:22 17° 290° (WNW) 10:21:02 2200.000
ANTELSAT 31 Mar 10:17:45 10:21:59 74° 77° (ENE) 10:26:18 437.575/2403.000
ZACube-1 31 Mar 10:17:57 10:22:20 60° 100° (E) 10:26:48 437.345
BUGSAT 1 31 Mar 10:22:09 10:25:36 26° 73° (ENE) 10:29:07 437.445
VELOX 1 31 Mar 10:23:33 10:26:33 18° 94° (E) 10:29:42 145.980
CUBEBUG 2 31 Mar 10:23:37 10:28:07 75° 283° (WNW) 10:32:43 437.445
BEESAT 2 31 Mar 10:25:05 10:28:18 21° 308° (NW) 10:31:29 435.950
CINEMA 3 31 Mar 10:26:14 10:30:23 36° 286° (WNW) 10:34:39 145.822/145.860
AISAT 31 Mar 10:28:52 10:32:15 22° 95° (E) 10:35:45 437.250
CUTE 1.7 + AOD 2 31 Mar 10:29:47 10:31:54 13° 291° (WNW) 10:33:47 437.475
POPSAT HIP 1 31 Mar 10:33:44 10:37:51 54° 75° (ENE) 10:41:57 437.405
NANOSAT C BR1 31 Mar 10:43:20 10:47:31 73° 77° (ENE) 10:51:43 145.865
AAUSAT CUBESAT 2 31 Mar 10:45:46 10:48:06 14° 290° (WNW) 10:50:12 437.432
VERMONT LUNAR 31 Mar 10:46:27 10:48:56 19° 216° (SW) 10:51:23 437.305
POLYITAN 1 31 Mar 10:49:33 10:53:46 89° 78° (ENE) 10:57:59 437.675
HO-68 31 Mar 10:50:14 10:55:39 23° 296° (WNW) 11:00:47 435.675
HUMSAT D 31 Mar 10:51:51 10:56:08 72° 102° (ESE) 11:00:26 437.325/437.525
UKube-1 31 Mar 10:56:53 11:01:12 70° 284° (WNW) 11:05:28 .
ESTCUBE 1 31 Mar 11:05:20 11:09:13 29° 96° (E) 11:13:08 437.505/2401.250
DX 1 31 Mar 11:10:10 11:14:18 45° 286° (WNW) 11:18:25 434.975-435.025
50 SAT 31 Mar 11:13:10 11:17:13 85° 101° (E) 11:21:17 437.505
UNISAT 6 31 Mar 11:14:47 11:18:11 22° 265° (W) 11:21:31 437.425
TIGRISAT 31 Mar 11:24:29 11:27:28 18° 267° (W) 11:30:20 435.000
QB50P1 31 Mar 11:25:58 11:29:47 32° 263° (W) 11:33:33 145.935-145.965
DUCHIFAT 1 31 Mar 11:26:32 11:30:19 32° 263° (W) 11:34:06 145.980
Oscar 11 31 Mar 11:28:23 11:29:42 11° 292° (WNW) 11:30:46 145.826/435.025
FUNcube-1 31 Mar 11:41:56 11:44:38 16° 290° (WNW) 11:47:11 145.935
QB50P2 31 Mar 11:42:19 11:45:32 20° 266° (W) 11:48:39 145.880/145.840
PHONESAT 2.4 31 Mar 11:45:17 11:47:47 18° 217° (SW) 11:50:14 2401.200-2431.200
JUGNU 31 Mar 11:50:09 11:52:56 14° 166° (SSE) 11:55:50 437.505
CUBEBUG 1 31 Mar 11:52:22 11:56:43 85° 283° (WNW) 12:01:02 437.445
SPROUT 31 Mar 11:53:35 11:56:50 21° 95° (E) 12:00:10 437.525
ZACube-1 31 Mar 11:57:15 11:58:18 11° 292° (WNW) 11:59:04 437.345
BUGSAT 1 31 Mar 11:58:04 12:01:07 19° 266° (W) 12:04:01 437.445
VELOX 1 31 Mar 11:59:19 12:03:12 30° 288° (WNW) 12:07:01 145.980
AISAT 31 Mar 12:05:09 12:08:51 26° 288° (WNW) 12:12:26 437.250
